[TLELIST] Archives

 

[TLELIST] Current TLEs

November 19th 2023 PST

HST 1 20580U 90037B 23322.73090137 .00004263 00000-0 21320-3 0 9992 2 20580 28.4704 318.5727 0002497 248.2240 279.6926 15.14868931644909 ISS (ZARYA) 1 25544U 98067A 23323.41207948 .00052143 00000-0 93316-3 0 9998 2 25544 51.6434 279.6956 0001119 330.7912 173.5659 15.49460790425862 CXO 1 25867U 99040B 23323.96475560 .00000830 00000-0 00000-0 0 9996 2 25867 37.6703 177.0577 9029864 278.5648 0.1916 0.37811884 13762 ...Continue Reading

[TLELIST] Current TLEs

November 18th 2023 PST

HST 1 20580U 90037B 23321.74265420 .00004219 00000-0 21095-3 0 9991 2 20580 28.4705 325.1644 0002529 236.8525 290.9112 15.14860849644753 ISS (ZARYA) 1 25544U 98067A 23322.38088115 .00012236 00000-0 22660-3 0 9999 2 25544 51.6445 284.8002 0000866 310.7864 197.8234 15.49414500425705 CXO 1 25867U 99040B 23323.96475560 .00000830 00000-0 00000-0 0 9996 2 25867 37.6703 177.0577 9029864 278.5648 0.1916 0.37811884 13762 ...Continue Reading

[TLELIST] Current TLEs

November 18th 2023 PST

HST 1 20580U 90037B 23321.74265420 .00004219 00000-0 21095-3 0 9991 2 20580 28.4705 325.1644 0002529 236.8525 290.9112 15.14860849644753 ISS (ZARYA) 1 25544U 98067A 23322.38088115 .00012236 00000-0 22660-3 0 9999 2 25544 51.6445 284.8002 0000866 310.7864 197.8234 15.49414500425705 CXO 1 25867U 99040B 23323.96475560 .00000830 00000-0 00000-0 0 9996 2 25867 37.6703 177.0577 9029864 278.5648 0.1916 0.37811884 13762 ...Continue Reading

[TLELIST] Current TLEs

November 17th 2023 PST

HST 1 20580U 90037B 23321.19876109 .00004690 00000-0 23563-3 0 9997 2 20580 28.4705 328.7921 0002563 230.2581 205.4827 15.14857409644930 ISS (ZARYA) 1 25544U 98067A 23321.41134024 .00012713 00000-0 23531-3 0 9991 2 25544 51.6431 289.5970 0000839 305.0931 191.9975 15.49391010425558 CXO 1 25867U 99040B 23323.96475560 .00000830 00000-0 00000+0 0 9995 2 25867 37.6703 177.0577 9029864 278.5648 0.1916 0.37811884 24922 ...Continue Reading

[TLELIST] Current TLEs

November 16th 2023 PST

HST 1 20580U 90037B 23319.76625274 .00005031 00000-0 25354-3 0 9992 2 20580 28.4706 338.3468 0002625 213.9028 314.1468 15.14844800644454 ISS (ZARYA) 1 25544U 98067A 23320.50172660 .00012302 00000-0 22817-3 0 9998 2 25544 51.6430 294.0998 0000896 297.4748 162.6536 15.49365989425410 CXO 1 25867U 99040B 23321.32067009 .00000889 00000-0 00000-0 0 9993 2 25867 37.6436 177.3444 9030576 278.3451 0.1354 0.37813561 13763 ...Continue Reading

[TLELIST] Current TLEs

November 15th 2023 PST

HST 1 20580U 90037B 23318.77758622 .00005102 00000-0 25732-3 0 9995 2 20580 28.4707 344.9409 0002680 202.9341 322.7593 15.14835091644300 ISS (ZARYA) 1 25544U 98067A 23319.34820770 .00026054 00000-0 47374-3 0 9994 2 25544 51.6430 299.8121 0001349 311.1125 190.8217 15.49345539425236 CXO 1 25867U 99040B 23321.32067009 .00000889 00000-0 00000+0 0 9992 2 25867 37.6436 177.3444 9030576 278.3451 0.1354 0.37813561 24912 ...Continue Reading

[TLELIST] Current TLEs

November 14th 2023 PST

HST 1 20580U 90037B 23317.51684215 .00005715 00000-0 28952-3 0 9999 2 20580 28.4707 353.3494 0002757 189.0557 287.6237 15.14822922644119 ISS (ZARYA) 1 25544U 98067A 23318.38141381 .00015706 00000-0 28947-3 0 9998 2 25544 51.6442 304.5967 0001063 297.2284 208.7871 15.49315489425083 CXO 1 25867U 99040B 23321.31974296 .00000889 00000-0 00000+0 0 9996 2 25867 37.6443 177.3564 9030567 278.3337 0.0092 0.37815077 24918 ...Continue Reading

[TLELIST] Current TLEs

November 13th 2023 PST

HST 1 20580U 90037B 23316.52810194 .00006331 00000-0 32192-3 0 9992 2 20580 28.4707 359.9432 0002838 178.6199 295.3828 15.14813398643960 ISS (ZARYA) 1 25544U 98067A 23317.34038491 .00074866 00000-0 13399-2 0 9996 2 25544 51.6422 309.7461 0000971 284.2478 171.6256 15.49301942424921 CXO 1 25867U 99040B 23318.67551201 .00000885 00000-0 00000+0 0 9994 2 25867 37.6254 177.6480 9031803 278.1047 359.9328 0.37815707 24905 ...Continue Reading

[TLELIST] Current TLEs

November 12th 2023 PST

HST 1 20580U 90037B 23316.18485427 .00005383 00000-0 27229-3 0 9992 2 20580 28.4705 2.2326 0002843 174.5958 223.8405 15.14807961644172 ISS (ZARYA) 1 25544U 98067A 23316.51037694 .00017784 00000-0 32722-3 0 9996 2 25544 51.6418 313.8554 0001004 293.4527 210.1111 15.49261995424797 CXO 1 25867U 99040B 23316.03353944 .00000893 00000-0 00000-0 0 9996 2 25867 37.6161 177.9282 9034200 277.8835 0.1789 0.37818723 13736 ...Continue Reading

[TLELIST] Current TLEs

November 11th 2023 PST

HST 1 20580U 90037B 23314.89022179 .00005885 00000-0 29872-3 0 9992 2 20580 28.4704 10.8671 0002915 161.1410 3.2344 15.14793384643987 ISS (ZARYA) 1 25544U 98067A 23315.34277753 -.00000448 00000-0 00000+0 0 9998 2 25544 51.6416 319.6351 0000663 266.6131 200.6312 15.49203655424614 CXO 1 25867U 99040B 23316.03353944 .00000893 00000-0 00000-0 0 9996 2 25867 37.6161 177.9282 9034200 277.8835 0.1789 0.37818723 13736 ...Continue Reading
  • This mailing list is a public mailing list - anyone may join or leave, at any time.
  • This mailing list is announce-only.

International Space Station (ISS) / Hubble Space Telescope (HST) / Chandra X-Ray Observatory Orbital Data via EMAIL

Privacy Policy:

Private list